Arcadia — ZCDN9 — position and weather

sailwx.info

Track history (hours):
 
Tides and Currents Weather Stations Pressure Air Temp Water Temp Dewpoint Dewpoint Depression Visibility Wind Speed Wind Dir Waves Ship Positions

Arcadia

Last reported at 2018-Feb-17 19:00 UTC. Time now 2018-Feb-18 03:25 UTC.
Position N 29°18' W 032°12'.

Length 285.1 m; beam 32.2 m; draft 8 m.

Type: Passenger vessel. MMSI: 310473000.

Wind from 170 at 3 knots

Barometer 1025.6 mb
Air temperature 19.7 ° C
Visibility: greater than 10.8 NM
Dewpoint 15.1 ° C
Water temperature 19.4 ° C

Date/timePositionNaut miles runAvg speedWind from/ knotsBaromVisibWave heightAir tempDewpointWater temp
2018-Feb-17 19:00N 29°18' W 032°12'20218.3 170 / 31025.610.8 19.715.119.4
2018-Feb-17 08:00N 30°18' W 028°30'   140 / 41026.310.8 18.413.119.1
2018-Feb-12 12:23N 47°58' W 005°60'613.7
2018-Feb-12 11:55N 48°03' W 005°54'613.8
2018-Feb-12 11:30N 48°07' W 005°48'714.0
2018-Feb-12 11:00N 48°13' W 005°41'714.0
2018-Feb-12 10:29N 48°19' W 005°37'714.4
2018-Feb-12 10:00N 48°25' W 005°31'814.8
2018-Feb-12 09:29N 48°31' W 005°24'715.1
2018-Feb-12 09:00N 48°37' W 005°17'815.4
2018-Feb-12 08:30N 48°42' W 005°09'815.4
2018-Feb-12 08:00N 48°47' W 005°00'815.5
2018-Feb-12 07:30N 48°53' W 004°51'815.4
2018-Feb-12 07:00N 48°58' W 004°43'715.2
2018-Feb-12 06:30N 49°03' W 004°34'915.0
2018-Feb-12 05:52N 49°09' W 004°23'5114.1
2018-Feb-12 02:15N 49°44' W 003°26'314.0
2018-Feb-12 02:00N 49°45' W 003°21'714.5
2018-Feb-12 01:30N 49°50' W 003°12'715.2
2018-Feb-12 01:00N 49°55' W 003°03'815.3
2018-Feb-12 00:30N 49°59' W 002°53'815.8
2018-Feb-12 00:00N 50°00' W 002°41'816.1
2018-Feb-11 23:30N 50°02' W 002°29'816.3
2018-Feb-11 23:00N 50°06' W 002°17'816.6
2018-Feb-11 22:31N 50°11' W 002°07'816.3
2018-Feb-11 22:00N 50°15' W 001°56'816.0
2018-Feb-11 21:30N 50°18' W 001°45'815.6
2018-Feb-11 21:01N 50°22' W 001°34'815.2
2018-Feb-11 20:30N 50°26' W 001°24'814.1
2018-Feb-11 19:55N 50°30' W 001°12'513.3
2018-Feb-11 19:30N 50°32' W 001°05'713.3
2018-Feb-11 19:00N 50°38' W 000°59'510.7
2018-Feb-11 18:31N 50°43' W 001°00'816.5
2018-Feb-11 18:00N 50°46' W 001°13'510.1
2018-Feb-11 17:31N 50°49' W 001°18'5 9.7
2018-Feb-11 17:00N 50°53' W 001°24'1 1.4
2018-Feb-11 16:28N 50°53' W 001°24'0 0.0
2018-Feb-11 15:58N 50°53' W 001°24'0 0.0
2018-Feb-11 15:28N 50°53' W 001°24'0 0.0
2018-Feb-11 14:58N 50°53' W 001°24'0 0.0
2018-Feb-11 14:28N 50°53' W 001°24'0 0.0
2018-Feb-11 13:58N 50°53' W 001°24'0 0.0
2018-Feb-11 13:28N 50°53' W 001°24'0 0.0
2018-Feb-11 12:58N 50°53' W 001°24'0 0.0
2018-Feb-11 12:28N 50°53' W 001°24'0 0.0
2018-Feb-11 11:58N 50°53' W 001°24'0 0.0
2018-Feb-11 11:28N 50°53' W 001°24'0 0.0
2018-Feb-11 10:58N 50°53' W 001°24'0 0.0
2018-Feb-11 10:28N 50°53' W 001°24'0 0.0
2018-Feb-11 09:58N 50°53' W 001°24'0 0.0
2018-Feb-11 09:28N 50°53' W 001°24'0 0.0
2018-Feb-11 08:58N 50°53' W 001°24'0 0.0
2018-Feb-11 08:28N 50°53' W 001°24'0 0.0
2018-Feb-11 07:58N 50°53' W 001°24'0 0.0
2018-Feb-11 07:28N 50°53' W 001°24'0 0.0
2018-Feb-11 06:58N 50°53' W 001°24'1 1.4
2018-Feb-11 06:30N 50°53' W 001°24'4 8.4
2018-Feb-11 06:00N 50°50' W 001°19'4 8.9
2018-Feb-11 05:30N 50°46' W 001°15'815.8
2018-Feb-11 05:00N 50°44' W 001°03'611.0
2018-Feb-11 04:30N 50°39' W 000°58'510.6
2018-Feb-11 04:00N 50°34' W 001°00'510.5
2018-Feb-11 03:30N 50°31' W 001°07'612.1
2018-Feb-11 03:00N 50°29' W 001°16'811.4
2018-Feb-11 02:21N 50°26' W 001°27'411.1
2018-Feb-11 02:00N 50°25' W 001°32'510.8
2018-Feb-11 01:30N 50°24' W 001°40'510.4
2018-Feb-11 01:00N 50°22' W 001°48'510.4
2018-Feb-11 00:30N 50°21' W 001°56'6 9.8
2018-Feb-10 23:56N 50°19' W 002°04'610.0
2018-Feb-10 23:19N 50°12' W 002°05'310.4
2018-Feb-10 23:00N 50°12' W 001°60'611.3
2018-Feb-10 22:30N 50°13' W 001°51'611.5
2018-Feb-10 22:00N 50°15' W 001°42'611.3
2018-Feb-10 21:30N 50°16' W 001°34'611.2
2018-Feb-10 21:00N 50°17' W 001°25'510.9
2018-Feb-10 20:30N 50°18' W 001°17'510.4
2018-Feb-10 20:01N 50°20' W 001°09'1310.3
2018-Feb-10 18:46N 50°23' W 000°50'18 9.9
2018-Feb-10 17:00N 50°26' W 000°23'510.2
2018-Feb-10 16:30N 50°27' W 000°15'510.4
2018-Feb-10 16:00N 50°29' W 000°07'3 6.7
2018-Feb-10 15:30N 50°29' W 000°02'4 8.3
2018-Feb-10 15:00N 50°31' E 000°04'611.4
2018-Feb-10 14:30N 50°32' E 000°13'611.8
2018-Feb-10 14:00N 50°34' E 000°22'612.2
2018-Feb-10 13:30N 50°36' E 000°31'612.3
2018-Feb-10 13:00N 50°39' E 000°39'612.6
2018-Feb-10 12:30N 50°42' E 000°47'612.7
2018-Feb-10 12:00N 50°46' E 000°55'612.3
2018-Feb-10 11:30N 50°51' E 001°02'611.7
2018-Feb-10 11:00N 50°55' E 001°09'711.7
2018-Feb-10 10:26N 50°59' E 001°17'511.2
2018-Feb-10 10:00N 51°02' E 001°23'511.1
2018-Feb-10 09:30N 51°06' E 001°29'611.1
2018-Feb-10 09:01N 51°09' E 001°37'510.8
2018-Feb-10 08:30N 51°12' E 001°44'611.2
2018-Feb-10 08:00N 51°17' E 001°48'510.5
2018-Feb-10 07:31N 51°21' E 001°52'510.1
2018-Feb-10 07:00N 51°26' E 001°56'510.6
2018-Feb-10 06:30N 51°30' E 002°02'510.9
2018-Feb-10 06:00N 51°34' E 002°08'611.0
2018-Feb-10 05:30N 51°38' E 002°14'611.3
2018-Feb-10 05:01N 51°42' E 002°20'611.4
2018-Feb-10 04:30N 51°46' E 002°26'611.5
2018-Feb-10 03:59N 51°51' E 002°31'1512.4
2018-Feb-10 02:46N 52°03' E 002°46'412.5
2018-Feb-10 02:27N 52°06' E 002°51'612.3
2018-Feb-10 01:59N 52°10' E 002°58'612.0
2018-Feb-10 01:30N 52°14' E 003°04'612.1
2018-Feb-10 01:00N 52°19' E 003°10'1211.2
2018-Feb-09 23:55N 52°26' E 003°26'511.1
2018-Feb-09 23:30N 52°28' E 003°33'811.0
2018-Feb-09 22:47N 52°30' E 003°45'010.7
2018-Feb-09 22:46N 52°31' E 003°46'310.8
2018-Feb-09 22:30N 52°31' E 003°50'511.0
2018-Feb-09 22:00N 52°31' E 003°59'511.0
2018-Feb-09 21:30N 52°31' E 004°08'611.2
2018-Feb-09 21:00N 52°30' E 004°17'611.2
2018-Feb-09 20:30N 52°29' E 004°26'510.9
2018-Feb-09 20:00N 52°28' E 004°35'1 1.8
2018-Feb-09 19:31N 52°28' E 004°36'1 1.5
2018-Feb-09 19:01N 52°28' E 004°38'2 3.8
2018-Feb-09 18:31N 52°27' E 004°41'3 6.4
2018-Feb-09 18:00N 52°26' E 004°45'4 7.4
2018-Feb-09 17:31N 52°25' E 004°51'3 6.1
2018-Feb-09 17:00N 52°23' E 004°54'0 0.5
2018-Feb-09 16:30N 52°23' E 004°55'0 0.0
2018-Feb-09 16:00N 52°23' E 004°55'0 0.0
2018-Feb-09 15:30N 52°23' E 004°55'0 0.0
2018-Feb-09 15:00N 52°23' E 004°55'0 0.0
2018-Feb-09 14:00N 52°23' E 004°55'0 0.0
2018-Feb-09 13:30N 52°23' E 004°55'0 0.0
2018-Feb-09 13:00N 52°23' E 004°55'0 0.0
2018-Feb-09 12:30N 52°23' E 004°55'0 0.0
2018-Feb-09 12:00N 52°23' E 004°55'0 0.0
2018-Feb-09 11:30N 52°23' E 004°55'0 0.0
2018-Feb-09 11:00N 52°23' E 004°55'0 0.0
2018-Feb-09 10:30N 52°23' E 004°55'0 0.0
2018-Feb-09 10:00N 52°23' E 004°55'0 0.0
2018-Feb-09 09:30N 52°23' E 004°55'0 0.0
2018-Feb-09 09:00N 52°23' E 004°55'0 0.0
2018-Feb-09 08:30N 52°23' E 004°55'0 0.0
2018-Feb-09 08:00N 52°23' E 004°55'0 0.0
2018-Feb-09 07:00N 52°23' E 004°55'12 4.7
2018-Feb-09 04:31N 52°28' E 004°37'2 2.4
2018-Feb-09 03:31N 52°28' E 004°34'1110.6
2018-Feb-09 02:30N 52°29' E 004°16'612.6
2018-Feb-09 02:00N 52°28' E 004°06'612.9
2018-Feb-09 01:30N 52°27' E 003°56'73 9.7
2018-Feb-08 18:00N 51°25' E 002°52'1211.7
2018-Feb-08 17:00N 51°23' E 003°11'2 0.2
2018-Feb-08 07:00N 51°21' E 003°12'2013.3
2018-Feb-08 05:30N 51°22' E 002°40'714.1
2018-Feb-08 05:00N 51°22' E 002°29'2818.7
2018-Feb-08 03:30N 51°08' E 001°50'918.7
2018-Feb-08 03:00N 51°02' E 001°38'1817.9
2018-Feb-08 02:00N 50°47' E 001°23'917.5
2018-Feb-08 01:30N 50°40' E 001°15'1018.9
2018-Feb-08 00:58N 50°34' E 001°03'918.2
2018-Feb-08 00:29N 50°29' E 000°51'918.8
2018-Feb-08 00:00N 50°27' E 000°37'1019.2
2018-Feb-07 23:31N 50°23' E 000°23'1019.0
2018-Feb-07 23:00N 50°21' E 000°09'917.9
2018-Feb-07 22:30N 50°21' W 000°05'918.9
2018-Feb-07 22:00N 50°27' W 000°17'816.4
2018-Feb-07 21:31N 50°31' W 000°29'  
Track history (hours):
 
Tides and Currents Weather Stations Pressure Air Temp Water Temp Dewpoint Dewpoint Depression Visibility Wind Speed Wind Dir Waves Ship Positions

Arcadia

Last reported at 2018-Feb-17 19:00 UTC. Time now 2018-Feb-18 03:25 UTC.
Position N 29°18' W 032°12'.

Length 285.1 m; beam 32.2 m; draft 8 m.

Type: Passenger vessel. MMSI: 310473000.

Wind from 170 at 3 knots

Barometer 1025.6 mb
Air temperature 19.7 ° C
Visibility: greater than 10.8 NM
Dewpoint 15.1 ° C
Water temperature 19.4 ° C

Date/timePositionNaut miles runAvg speedWind from/ knotsBaromVisibWave heightAir tempDewpointWater temp
2018-Feb-17 19:00N 29°18' W 032°12'20218.3 170 / 31025.610.8 19.715.119.4
2018-Feb-17 08:00N 30°18' W 028°30'   140 / 41026.310.8 18.413.119.1
2018-Feb-12 12:23N 47°58' W 005°60'613.7
2018-Feb-12 11:55N 48°03' W 005°54'613.8
2018-Feb-12 11:30N 48°07' W 005°48'714.0
2018-Feb-12 11:00N 48°13' W 005°41'714.0
2018-Feb-12 10:29N 48°19' W 005°37'714.4
2018-Feb-12 10:00N 48°25' W 005°31'814.8
2018-Feb-12 09:29N 48°31' W 005°24'715.1
2018-Feb-12 09:00N 48°37' W 005°17'815.4
2018-Feb-12 08:30N 48°42' W 005°09'815.4
2018-Feb-12 08:00N 48°47' W 005°00'815.5
2018-Feb-12 07:30N 48°53' W 004°51'815.4
2018-Feb-12 07:00N 48°58' W 004°43'715.2
2018-Feb-12 06:30N 49°03' W 004°34'915.0
2018-Feb-12 05:52N 49°09' W 004°23'5114.1
2018-Feb-12 02:15N 49°44' W 003°26'314.0
2018-Feb-12 02:00N 49°45' W 003°21'714.5
2018-Feb-12 01:30N 49°50' W 003°12'715.2
2018-Feb-12 01:00N 49°55' W 003°03'815.3
2018-Feb-12 00:30N 49°59' W 002°53'815.8
2018-Feb-12 00:00N 50°00' W 002°41'816.1
2018-Feb-11 23:30N 50°02' W 002°29'816.3
2018-Feb-11 23:00N 50°06' W 002°17'816.6
2018-Feb-11 22:31N 50°11' W 002°07'816.3
2018-Feb-11 22:00N 50°15' W 001°56'816.0
2018-Feb-11 21:30N 50°18' W 001°45'815.6
2018-Feb-11 21:01N 50°22' W 001°34'815.2
2018-Feb-11 20:30N 50°26' W 001°24'814.1
2018-Feb-11 19:55N 50°30' W 001°12'513.3
2018-Feb-11 19:30N 50°32' W 001°05'713.3
2018-Feb-11 19:00N 50°38' W 000°59'510.7
2018-Feb-11 18:31N 50°43' W 001°00'816.5
2018-Feb-11 18:00N 50°46' W 001°13'510.1
2018-Feb-11 17:31N 50°49' W 001°18'5 9.7
2018-Feb-11 17:00N 50°53' W 001°24'1 1.4
2018-Feb-11 16:28N 50°53' W 001°24'0 0.0
2018-Feb-11 15:58N 50°53' W 001°24'0 0.0
2018-Feb-11 15:28N 50°53' W 001°24'0 0.0
2018-Feb-11 14:58N 50°53' W 001°24'0 0.0
2018-Feb-11 14:28N 50°53' W 001°24'0 0.0
2018-Feb-11 13:58N 50°53' W 001°24'0 0.0
2018-Feb-11 13:28N 50°53' W 001°24'0 0.0
2018-Feb-11 12:58N 50°53' W 001°24'0 0.0
2018-Feb-11 12:28N 50°53' W 001°24'0 0.0
2018-Feb-11 11:58N 50°53' W 001°24'0 0.0
2018-Feb-11 11:28N 50°53' W 001°24'0 0.0
2018-Feb-11 10:58N 50°53' W 001°24'0 0.0
2018-Feb-11 10:28N 50°53' W 001°24'0 0.0
2018-Feb-11 09:58N 50°53' W 001°24'0 0.0
2018-Feb-11 09:28N 50°53' W 001°24'0 0.0
2018-Feb-11 08:58N 50°53' W 001°24'0 0.0
2018-Feb-11 08:28N 50°53' W 001°24'0 0.0
2018-Feb-11 07:58N 50°53' W 001°24'0 0.0
2018-Feb-11 07:28N 50°53' W 001°24'0 0.0
2018-Feb-11 06:58N 50°53' W 001°24'1 1.4
2018-Feb-11 06:30N 50°53' W 001°24'4 8.4
2018-Feb-11 06:00N 50°50' W 001°19'4 8.9
2018-Feb-11 05:30N 50°46' W 001°15'815.8
2018-Feb-11 05:00N 50°44' W 001°03'611.0
2018-Feb-11 04:30N 50°39' W 000°58'510.6
2018-Feb-11 04:00N 50°34' W 001°00'510.5
2018-Feb-11 03:30N 50°31' W 001°07'612.1
2018-Feb-11 03:00N 50°29' W 001°16'811.4
2018-Feb-11 02:21N 50°26' W 001°27'411.1
2018-Feb-11 02:00N 50°25' W 001°32'510.8
2018-Feb-11 01:30N 50°24' W 001°40'510.4
2018-Feb-11 01:00N 50°22' W 001°48'510.4
2018-Feb-11 00:30N 50°21' W 001°56'6 9.8
2018-Feb-10 23:56N 50°19' W 002°04'610.0
2018-Feb-10 23:19N 50°12' W 002°05'310.4
2018-Feb-10 23:00N 50°12' W 001°60'611.3
2018-Feb-10 22:30N 50°13' W 001°51'611.5
2018-Feb-10 22:00N 50°15' W 001°42'611.3
2018-Feb-10 21:30N 50°16' W 001°34'611.2
2018-Feb-10 21:00N 50°17' W 001°25'510.9
2018-Feb-10 20:30N 50°18' W 001°17'510.4
2018-Feb-10 20:01N 50°20' W 001°09'1310.3
2018-Feb-10 18:46N 50°23' W 000°50'18 9.9
2018-Feb-10 17:00N 50°26' W 000°23'510.2
2018-Feb-10 16:30N 50°27' W 000°15'510.4
2018-Feb-10 16:00N 50°29' W 000°07'3 6.7
2018-Feb-10 15:30N 50°29' W 000°02'4 8.3
2018-Feb-10 15:00N 50°31' E 000°04'611.4
2018-Feb-10 14:30N 50°32' E 000°13'611.8
2018-Feb-10 14:00N 50°34' E 000°22'612.2
2018-Feb-10 13:30N 50°36' E 000°31'612.3
2018-Feb-10 13:00N 50°39' E 000°39'612.6
2018-Feb-10 12:30N 50°42' E 000°47'612.7
2018-Feb-10 12:00N 50°46' E 000°55'612.3
2018-Feb-10 11:30N 50°51' E 001°02'611.7
2018-Feb-10 11:00N 50°55' E 001°09'711.7
2018-Feb-10 10:26N 50°59' E 001°17'511.2
2018-Feb-10 10:00N 51°02' E 001°23'511.1
2018-Feb-10 09:30N 51°06' E 001°29'611.1
2018-Feb-10 09:01N 51°09' E 001°37'510.8
2018-Feb-10 08:30N 51°12' E 001°44'611.2
2018-Feb-10 08:00N 51°17' E 001°48'510.5
2018-Feb-10 07:31N 51°21' E 001°52'510.1
2018-Feb-10 07:00N 51°26' E 001°56'510.6
2018-Feb-10 06:30N 51°30' E 002°02'510.9
2018-Feb-10 06:00N 51°34' E 002°08'611.0
2018-Feb-10 05:30N 51°38' E 002°14'611.3
2018-Feb-10 05:01N 51°42' E 002°20'611.4
2018-Feb-10 04:30N 51°46' E 002°26'611.5
2018-Feb-10 03:59N 51°51' E 002°31'1512.4
2018-Feb-10 02:46N 52°03' E 002°46'412.5
2018-Feb-10 02:27N 52°06' E 002°51'612.3
2018-Feb-10 01:59N 52°10' E 002°58'612.0
2018-Feb-10 01:30N 52°14' E 003°04'612.1
2018-Feb-10 01:00N 52°19' E 003°10'1211.2
2018-Feb-09 23:55N 52°26' E 003°26'511.1
2018-Feb-09 23:30N 52°28' E 003°33'811.0
2018-Feb-09 22:47N 52°30' E 003°45'010.7
2018-Feb-09 22:46N 52°31' E 003°46'310.8
2018-Feb-09 22:30N 52°31' E 003°50'511.0
2018-Feb-09 22:00N 52°31' E 003°59'511.0
2018-Feb-09 21:30N 52°31' E 004°08'611.2
2018-Feb-09 21:00N 52°30' E 004°17'611.2
2018-Feb-09 20:30N 52°29' E 004°26'510.9
2018-Feb-09 20:00N 52°28' E 004°35'1 1.8
2018-Feb-09 19:31N 52°28' E 004°36'1 1.5
2018-Feb-09 19:01N 52°28' E 004°38'2 3.8
2018-Feb-09 18:31N 52°27' E 004°41'3 6.4
2018-Feb-09 18:00N 52°26' E 004°45'4 7.4
2018-Feb-09 17:31N 52°25' E 004°51'3 6.1
2018-Feb-09 17:00N 52°23' E 004°54'0 0.5
2018-Feb-09 16:30N 52°23' E 004°55'0 0.0
2018-Feb-09 16:00N 52°23' E 004°55'0 0.0
2018-Feb-09 15:30N 52°23' E 004°55'0 0.0
2018-Feb-09 15:00N 52°23' E 004°55'0 0.0
2018-Feb-09 14:00N 52°23' E 004°55'0 0.0
2018-Feb-09 13:30N 52°23' E 004°55'0 0.0
2018-Feb-09 13:00N 52°23' E 004°55'0 0.0
2018-Feb-09 12:30N 52°23' E 004°55'0 0.0
2018-Feb-09 12:00N 52°23' E 004°55'0 0.0
2018-Feb-09 11:30N 52°23' E 004°55'0 0.0
2018-Feb-09 11:00N 52°23' E 004°55'0 0.0
2018-Feb-09 10:30N 52°23' E 004°55'0 0.0
2018-Feb-09 10:00N 52°23' E 004°55'0 0.0
2018-Feb-09 09:30N 52°23' E 004°55'0 0.0
2018-Feb-09 09:00N 52°23' E 004°55'0 0.0
2018-Feb-09 08:30N 52°23' E 004°55'0 0.0
2018-Feb-09 08:00N 52°23' E 004°55'0 0.0
2018-Feb-09 07:00N 52°23' E 004°55'12 4.7
2018-Feb-09 04:31N 52°28' E 004°37'2 2.4
2018-Feb-09 03:31N 52°28' E 004°34'1110.6
2018-Feb-09 02:30N 52°29' E 004°16'612.6
2018-Feb-09 02:00N 52°28' E 004°06'612.9
2018-Feb-09 01:30N 52°27' E 003°56'73 9.7
2018-Feb-08 18:00N 51°25' E 002°52'1211.7
2018-Feb-08 17:00N 51°23' E 003°11'2 0.2
2018-Feb-08 07:00N 51°21' E 003°12'2013.3
2018-Feb-08 05:30N 51°22' E 002°40'714.1
2018-Feb-08 05:00N 51°22' E 002°29'2818.7
2018-Feb-08 03:30N 51°08' E 001°50'918.7
2018-Feb-08 03:00N 51°02' E 001°38'1817.9
2018-Feb-08 02:00N 50°47' E 001°23'917.5
2018-Feb-08 01:30N 50°40' E 001°15'1018.9
2018-Feb-08 00:58N 50°34' E 001°03'918.2
2018-Feb-08 00:29N 50°29' E 000°51'918.8
2018-Feb-08 00:00N 50°27' E 000°37'1019.2
2018-Feb-07 23:31N 50°23' E 000°23'1019.0
2018-Feb-07 23:00N 50°21' E 000°09'917.9
2018-Feb-07 22:30N 50°21' W 000°05'918.9
2018-Feb-07 22:00N 50°27' W 000°17'816.4
2018-Feb-07 21:31N 50°31' W 000°29'  

Dump ship's entire track history